Change the Weather History Date:

Thursday, August 21, 2014

  Actual Average Record
Temperature  
Mean Temperature 70 °F -  
Max Temperature 78 °F 78 °F 92 °F (1955)
Min Temperature 64 °F 54 °F 42 °F (1949)
Cooling Degree Days 4    
Growing Degree Days 20 (Base 50)    
Moisture  
Dew Point 63 °F    
Average Humidity 81    
Maximum Humidity 93    
Minimum Humidity 60    
Precipitation  
Precipitation 0.03 in - - ()
Sea Level Pressure  
Sea Level Pressure 30.06 in    
Wind  
Wind Speed 4 mph (SE)    
Max Wind Speed 12 mph    
Max Gust Speed -    
Visibility 10 miles    
Events Rain    
Averages and records for this station are not official NWS values.
T = Trace of Precipitation, MM = Missing Value Source: NWS Daily Summary

Daily Weather History Graph

Daily Weather History Graph

Search for Another Location

Airport or City:

Trip Planner

Search our weather history database for the weather conditions in past years. The results will help you decide how hot, cold, wet, or windy it might be!

Date:

Astronomy

Aug. 21, 2014 Rise Set
Actual Time 6:09 AM EDT 7:44 PM EDT
Civil Twilight 5:39 AM EDT 8:13 PM EDT
Nautical Twilight 5:04 AM EDT 8:48 PM EDT
Astronomical Twilight 4:26 AM EDT 9:26 PM EDT
Moon 2:35 AM EDT (8/21) 5:12 PM EDT (8/21)
Length of Visible Light 14h 33m
Length of Day
13h 35m
Waning Crescent, 13% of the Moon is Illuminated
Aug 21
Waning Crescent
Aug 25
New
Sep 2
First Quarter
Sep 8
Full
Sep 15
Last Quarter

Hourly Weather History & Observations

Time (EDT) Temp. Dew Point Humidity Pressure Visibility Wind Dir Wind Speed Gust Speed Precip Events Conditions
12:53 AM 66.0 °F 60.1 °F 81% 30.05 in 10.0 mi SE 5.8 mph - N/A   Scattered Clouds
1:53 AM 64.9 °F 61.0 °F 87% 30.06 in 8.0 mi Calm Calm - 0.01 in Rain Light Rain
2:53 AM 64.0 °F 62.1 °F 93% 30.05 in 10.0 mi Calm Calm - 0.00 in   Mostly Cloudy
3:53 AM 64.9 °F 62.1 °F 90% 30.05 in 10.0 mi Calm Calm - N/A   Overcast
4:53 AM 64.9 °F 62.1 °F 90% 30.05 in 10.0 mi Calm Calm - N/A   Overcast
5:53 AM 64.9 °F 62.1 °F 90% 30.06 in 10.0 mi Calm Calm - 0.00 in Rain Light Rain
6:53 AM 66.0 °F 63.0 °F 90% 30.06 in 10.0 mi Calm Calm - 0.00 in   Overcast
7:53 AM 68.0 °F 63.0 °F 84% 30.07 in 9.0 mi Calm Calm - N/A   Partly Cloudy
8:53 AM 69.1 °F 64.0 °F 84% 30.07 in 10.0 mi SSE 6.9 mph - N/A   Overcast
9:53 AM 72.0 °F 64.9 °F 78% 30.09 in 10.0 mi SSE 8.1 mph - N/A   Mostly Cloudy
10:53 AM 71.1 °F 63.0 °F 75% 30.08 in 10.0 mi South 4.6 mph - N/A   Mostly Cloudy
11:53 AM 73.9 °F 64.0 °F 71% 30.07 in 10.0 mi SE 10.4 mph - 0.00 in   Mostly Cloudy
12:53 PM 75.0 °F 63.0 °F 66% 30.06 in 10.0 mi SE 8.1 mph - N/A   Mostly Cloudy
1:53 PM 75.9 °F 63.0 °F 64% 30.05 in 10.0 mi SSE 6.9 mph - N/A   Mostly Cloudy
2:53 PM 75.9 °F 61.0 °F 60% 30.05 in 10.0 mi SE 8.1 mph - N/A   Mostly Cloudy
4:53 PM 75.9 °F 62.1 °F 62% 30.03 in 10.0 mi SSE 11.5 mph - N/A   Partly Cloudy
5:53 PM 73.0 °F 61.0 °F 66% 30.03 in 10.0 mi Variable 5.8 mph - N/A   Scattered Clouds
6:53 PM 71.1 °F 62.1 °F 73% 30.04 in 10.0 mi Variable 3.5 mph - N/A   Clear
7:53 PM 70.0 °F 64.0 °F 81% 30.05 in 10.0 mi SSE 5.8 mph - N/A   Scattered Clouds
8:53 PM 69.1 °F 64.0 °F 84% 30.05 in 10.0 mi Variable 4.6 mph - 0.01 in Rain Light Rain
9:53 PM 66.9 °F 64.0 °F 90% 30.05 in 10.0 mi SSE 6.9 mph - 0.01 in Rain Light Rain
10:48 PM 68.0 °F 64.4 °F 88% 30.08 in 10.0 mi ESE 3.5 mph - 0.00 in   Overcast
10:53 PM 68.0 °F 64.0 °F 87% 30.07 in 10.0 mi ESE 3.5 mph - 0.00 in   Overcast
11:18 PM 68.0 °F 64.0 °F 87% 30.08 in 10.0 mi Calm Calm - N/A   Overcast
11:27 PM 66.9 °F 64.0 °F 90% 30.07 in 10.0 mi Calm Calm - N/A   Overcast
11:53 PM 66.9 °F 64.0 °F 90% 30.06 in 10.0 mi Calm Calm - N/A   Overcast